Hourly Weather Kivach

Today, 27 October, Tuesday

Time Temperature Precipitation Wind Pressure Humidity
00:00 +3°C° 0 mm 3 mps 759 mmHg 94%
01:00 +3°C° 0 mm 3 mps 759 mmHg 94%
02:00 +3°C° 0 mm 3 mps 759 mmHg 95%
03:00 +7°C° 0 mm 3 mps 756 mmHg 95%
04:00 +7°C° 0 mm 3 mps 756 mmHg 95%
05:00 +7°C° 0 mm 4 mps 755 mmHg 95%
06:00 +7°C° 0.1 mm 4 mps 755 mmHg 95%
07:00 +8°C° 0.1 mm 3 mps 755 mmHg 95%
08:00 +8°C° 0.1 mm 3 mps 755 mmHg 95%
09:00 +7°C° 0 mm 4 mps 755 mmHg 94%
10:00 +8°C° 0 mm 4 mps 755 mmHg 93%
11:00 +8°C° 0 mm 4 mps 755 mmHg 92%
12:00 +8°C° 0 mm 4 mps 755 mmHg 92%
13:00 +8°C° 0 mm 4 mps 754 mmHg 91%
14:00 +8°C° 0 mm 4 mps 754 mmHg 90%
15:00 +8°C° 0 mm 4 mps 754 mmHg 89%
16:00 +8°C° 0 mm 4 mps 754 mmHg 88%
17:00 +8°C° 0 mm 4 mps 753 mmHg 87%
18:00 +8°C° 0 mm 4 mps 753 mmHg 87%
19:00 +8°C° 0 mm 4 mps 753 mmHg 87%
20:00 +8°C° 0 mm 5 mps 753 mmHg 87%
21:00 +8°C° 0 mm 4 mps 753 mmHg 88%
22:00 +8°C° 0 mm 4 mps 752 mmHg 88%
23:00 +8°C° 0 mm 4 mps 752 mmHg 89%

Tomorrow, 28 October, Wednesday

Time Temperature Precipitation Wind Pressure Humidity
00:00 +8°C° 0.1 mm 4 mps 754 mmHg 92%
01:00 +8°C° 0.1 mm 4 mps 754 mmHg 92%
02:00 +8°C° 0.1 mm 4 mps 754 mmHg 93%
03:00 +8°C° 0.2 mm 4 mps 754 mmHg 93%
04:00 +8°C° 0.2 mm 4 mps 754 mmHg 93%
05:00 +8°C° 0.2 mm 4 mps 753 mmHg 93%
06:00 +8°C° 0 mm 4 mps 753 mmHg 92%
07:00 +8°C° 0 mm 4 mps 752 mmHg 92%
08:00 +8°C° 0 mm 4 mps 752 mmHg 91%
09:00 +8°C° 0 mm 5 mps 751 mmHg 89%
10:00 +9°C° 0 mm 5 mps 751 mmHg 88%
11:00 +9°C° 0 mm 6 mps 750 mmHg 86%
12:00 +9°C° 0.4 mm 6 mps 750 mmHg 85%
13:00 +9°C° 0.4 mm 7 mps 750 mmHg 84%
14:00 +10°C° 0.4 mm 7 mps 750 mmHg 83%
15:00 +9°C° 0 mm 7 mps 751 mmHg 82%
16:00 +9°C° 0 mm 6 mps 752 mmHg 81%
17:00 +8°C° 0 mm 5 mps 754 mmHg 80%
18:00 +7°C° 0 mm 4 mps 755 mmHg 83%
19:00 +6°C° 0 mm 4 mps 756 mmHg 87%
20:00 +7°C° 0 mm 3 mps 757 mmHg 91%
21:00 +5°C° 0 mm 3 mps 757 mmHg 92%
22:00 +6°C° 0 mm 2 mps 757 mmHg 93%
23:00 +6°C° 0 mm 2 mps 758 mmHg 94%

Day after tomorrow, 29 October, Thursday

Time Temperature Precipitation Wind Pressure Humidity
00:00 +5°C° 0 mm 2 mps 758 mmHg 94%
01:00 +5°C° 0 mm 2 mps 758 mmHg 95%
02:00 +5°C° 0 mm 2 mps 758 mmHg 96%
03:00 +5°C° 0 mm 2 mps 758 mmHg 96%
04:00 +4°C° 0 mm 2 mps 758 mmHg 96%
05:00 +4°C° 0 mm 2 mps 758 mmHg 96%
06:00 +5°C° 0.2 mm 2 mps 757 mmHg 96%
07:00 +5°C° 0.2 mm 2 mps 757 mmHg 96%
08:00 +5°C° 0.2 mm 2 mps 757 mmHg 97%
09:00 +6°C° 0.3 mm 2 mps 757 mmHg 97%
10:00 +7°C° 0.3 mm 2 mps 756 mmHg 97%
11:00 +7°C° 0.3 mm 2 mps 756 mmHg 97%
12:00 +8°C° 0 mm 2 mps 756 mmHg 97%
13:00 +8°C° 0 mm 2 mps 756 mmHg 96%
14:00 +9°C° 0 mm 2 mps 756 mmHg 96%
15:00 +9°C° 0 mm 2 mps 756 mmHg 96%
16:00 +8°C° 0 mm 2 mps 756 mmHg 95%
17:00 +8°C° 0 mm 2 mps 756 mmHg 95%
18:00 +8°C° 0 mm 2 mps 756 mmHg 95%
19:00 +8°C° 0 mm 2 mps 756 mmHg 95%
20:00 +8°C° 0 mm 2 mps 756 mmHg 95%
21:00 +8°C° 0 mm 2 mps 755 mmHg 95%
22:00 +8°C° 0 mm 2 mps 755 mmHg 95%
23:00 +8°C° 0 mm 2 mps 755 mmHg 96%

30 October, Friday

Time Temperature Precipitation Wind Pressure Humidity
00:00 +8°C° 0.2 mm 2 mps 755 mmHg 96%
01:00 +8°C° 0.2 mm 2 mps 755 mmHg 97%
02:00 +8°C° 0.2 mm 2 mps 755 mmHg 97%
03:00 +8°C° 0.1 mm 2 mps 755 mmHg 97%
04:00 +8°C° 0.1 mm 2 mps 754 mmHg 97%
05:00 +8°C° 0.1 mm 2 mps 754 mmHg 97%
06:00 +8°C° 0 mm 2 mps 754 mmHg 96%
07:00 +8°C° 0 mm 2 mps 754 mmHg 96%
08:00 +8°C° 0 mm 2 mps 754 mmHg 95%
09:00 +8°C° 0 mm 2 mps 753 mmHg 94%
10:00 +8°C° 0 mm 3 mps 753 mmHg 93%
11:00 +9°C° 0 mm 3 mps 753 mmHg 91%
12:00 +9°C° 0.1 mm 3 mps 753 mmHg 91%
13:00 +9°C° 0.1 mm 3 mps 753 mmHg 90%
14:00 +9°C° 0.1 mm 3 mps 753 mmHg 89%
15:00 +9°C° 0.1 mm 3 mps 752 mmHg 89%
16:00 +9°C° 0.1 mm 3 mps 752 mmHg 88%
17:00 +9°C° 0.1 mm 3 mps 752 mmHg 88%
18:00 +8°C° 0 mm 3 mps 752 mmHg 88%
19:00 +8°C° 0 mm 3 mps 752 mmHg 89%
20:00 +8°C° 0 mm 3 mps 751 mmHg 90%
21:00 +8°C° 0.1 mm 3 mps 751 mmHg 90%
22:00 +8°C° 0.1 mm 3 mps 750 mmHg 90%
23:00 +8°C° 0.1 mm 3 mps 750 mmHg 91%

31 October, Saturday

Time Temperature Precipitation Wind Pressure Humidity
00:00 +8°C° 0.3 mm 3 mps 749 mmHg 91%
01:00 +7°C° 0.3 mm 4 mps 749 mmHg 90%
02:00 +7°C° 0.3 mm 4 mps 748 mmHg 90%
03:00 +7°C° 0.7 mm 4 mps 748 mmHg 92%
04:00 +8°C° 0.7 mm 3 mps 747 mmHg 93%
05:00 +8°C° 0.7 mm 3 mps 747 mmHg 95%
06:00 +8°C° 0.4 mm 3 mps 747 mmHg 93%
07:00 +8°C° 0.4 mm 3 mps 747 mmHg 92%
08:00 +7°C° 0.4 mm 4 mps 747 mmHg 91%

1 November, Sunday

Time Temperature Precipitation Wind Pressure Humidity
Show more